Regional Weather Roundup
Issued by NWS

Home | Current Version | Previous Version | Graphics & Text | Print | Product List | Glossary On
Versions: 1 2 3 4 5 6 7 8 9 10 11 12 13 14 15 16 17 18 19 20 21 22 23 24 25 26 27 28 29 30 31 32 33 34 35 36 37 38 39 40 41 42 43 44 45 46 47 48 49 50
000
ASUS43 KLOT 301203
RWRIL

ILLINOIS REGIONAL WEATHER ROUNDUP
NATIONAL WEATHER SERVICE CHICAGO/ROMEOVILLE IL
700 AM CDT SAT APR 30 2016

NOTE: "FAIR" INDICATES FEW OR NO CLOUDS BELOW 12,000 FEET WITH NO
SIGNIFICANT WEATHER AND/OR OBSTRUCTIONS TO VISIBILITY.

* THESE STATIONS ARE NOT UNDER NWS QUALITY CONTROL. THEY ALSO MAY NOT
  REPORT WEATHER SUCH AS PRECIPITATION OR FOG.

ILZ001-002-007-009-015-016-024-301300-
NORTHWEST ILLINOIS

CITY           SKY/WX    TMP DP  RH WIND       PRES   REMARKS
MOLINE         CLOUDY    46  42  86 E14       29.94F FOG
6HR MIN TEMP:  46; 6HR MAX TEMP:  48; 6HR PCP: TRACE;

STERLING*      CLOUDY    45  43  93 E16       29.99F
$$

ILZ003-004-008-010-011-017-018-301300-
NORTH CENTRAL ILLINOIS

CITY           SKY/WX    TMP DP  RH WIND       PRES   REMARKS
ROCKFORD       CLOUDY    45  39  79 E12       30.06S
6HR MIN TEMP:  44; 6HR MAX TEMP:  45;

FREEPORT*      CLOUDY    43  39  86 E13       30.05F
ROCHELLE*      CLOUDY    45  42  88 E12       30.03S
DE KALB*       CLOUDY    45  42  90 E13       30.04S
$$

ILZ005-006-012>014-019>023-301300-
NORTHEAST ILLINOIS

CITY           SKY/WX    TMP DP  RH WIND       PRES   REMARKS
CHICAGO-OHARE  CLOUDY    46  42  86 E9        30.07R FOG
6HR MIN TEMP:  43; 6HR MAX TEMP:  46;

CHICAGO-MIDWAY CLOUDY    49  42  77 E10       30.06S
6HR MIN TEMP:  45; 6HR MAX TEMP:  49;

AURORA         CLOUDY    47  43  86 E13       30.03F FOG
6HR MIN TEMP:  44; 6HR MAX TEMP:  47;

LANSING*       CLOUDY    47  41  80 E8        30.07R
WAUKEGAN       CLOUDY    43  40  89 E12       30.08R
6HR MIN TEMP:  42; 6HR MAX TEMP:  45;

DUPAGE AIRPORT CLOUDY    46  41  82 E8        30.04F HAZE
6HR MIN TEMP:  43; 6HR MAX TEMP:  46;

WHEELING       CLOUDY    45  41  86 E7        30.09R
6HR MIN TEMP:  43; 6HR MAX TEMP:  45;

MORRIS*        CLOUDY    48  44  85 E12       30.01F FOG
NORTHERLY ISL    N/A     45  42  89 E9          N/A
NORTHERLY ISL    N/A     45  42  89 E9          N/A
$$

LMZ740>746-301300-
SOUTHERN LAKE MICHIGAN

STATION/POSITION SKY/WX   TEMP    WIND        PRES    VSBY  WAVE
                          AIR SEA DIR/SP/G                  HT/PER
                          (F)     (DEG/KT/KT) (MB)    (MI)  (FT/S)
SOUTHERN BUOY              41 40   70/ 12/ 12 1019.4          1
BURNHAM HARBOR             45      70/  9/ 14   N/A
CALUMET HARBOR             47      70/  8/ 12 1017.3R
BURNS HARBOR               47     100/  8/ 12 1018.3S
ST. JOSEPH                 47 47                N/A           1/ 4
$$

ILZ025>027-034>036-040-047-049-050-058-095>099-301300-
WEST-CENTRAL ILLINOIS

CITY           SKY/WX    TMP DP  RH WIND       PRES   REMARKS
QUINCY         LGT RAIN  50  48  93 E15G24    29.78F FOG
MACOMB*        LGT RAIN  47  47  99 E20       29.89F
PITTSFIELD*    LGT RAIN  53  52  98 E9        29.83S
$$

ILZ028>032-037-038-041>044-048-051>054-059>061-301300-
CENTRAL ILLINOIS

CITY           SKY/WX    TMP DP  RH WIND       PRES   REMARKS
BLOOMINGTON    LGT RAIN  48  48 100 E13       29.97R VSB 1
DECATUR        LGT RAIN  53  50  89 E15       29.92F FOG
PEORIA         LGT RAIN  48  45  89 E13       29.94S FOG
6HR MIN TEMP:  47; 6HR MAX TEMP:  48; 6HR PCP:  0.02;

LINCOLN*       RAIN      51  51  99 E9        29.92F
SPRINGFIELD    LGT RAIN  54  52  93 E14       29.88F FOG
6HR MIN TEMP:  51; 6HR MAX TEMP:  54; 6HR PCP:  0.19;

TAYLORVILLE    NOT AVBL
$$

ILZ033-039-045-046-055>057-062-063-301300-
EAST-CENTRAL ILLINOIS

CITY           SKY/WX    TMP DP  RH WIND       PRES   REMARKS
CHAMPAIGN      RAIN      51  49  92 E15       29.96R FOG
MATTOON        LGT RAIN  54  52  93 E8        29.93R FOG
$$

ILZ079-100>102-301300-
SOUTHWEST ILLINOIS

CITY           SKY/WX    TMP DP  RH WIND       PRES   REMARKS
ALTON          RAIN      56  56  97 E10       29.83F
BELLEVILLE     LGT RAIN  57  57 100 E13       29.82F FOG
CAHOKIA*       RAIN      59  56  89 SE13      29.81F FOG
SPARTA*        LGT RAIN  57  57  97 SE13      29.86R
$$

ILZ064>066-069>071-074>076-080>082-084>086-088>090-092>094-301300-
SOUTH-CENTRAL ILLINOIS

CITY           SKY/WX    TMP DP  RH WIND       PRES   REMARKS
CARBONDALE     LGT RAIN  59  57  93 E10       29.86F FOG
6HR MIN TEMP:  58; 6HR MAX TEMP:  60; 6HR PCP:  0.36;

EFFINGHAM*     RAIN      56  56 100 E7        29.94R
MARION         HVY RAIN  59  59 100 SE9       29.91R
MT. VERNON     CLOUDY    57  54  88 E5        29.91S
SALEM*         RAIN      58  56  93 E6        29.89S
$$

ILZ067-068-072-073-078-083-087-091-301300-
SOUTHEAST ILLINOIS

CITY           SKY/WX    TMP DP  RH WIND       PRES   REMARKS
LAWRENCEVILLE  LGT RAIN  58  55  90 NE5       29.95R FOG
FLORA*         RAIN      59  57  95 E3        29.93R
HARRISBURG*    HVY RAIN  58  58  99 E6        29.90S
ROBINSON*      LGT RAIN  55  54  96 E7        29.96R
$$

ABBREVIATIONS USED IN REMARKS
   TC - TEMPERATURE IN CELSIUS
  WCI - WIND CHILL INDEX
   HX - HEAT INDEX
  VSB - VISIBILITY
$$




USA.gov is the U.S. government's official web portal to all federal, state and local government web resources and services.